This is the latest recevied weather packets stored in our database for station/object VA6GSB-13. If no packets are shown the sender has not sent any weather packets the latest 10 day(s).
| Time | Temp. | Humidity | Pressure | Rain* | Wind** | Luminosity | Snow |
|---|---|---|---|---|---|---|---|
| 1787588963 | 16.67° C | 79% | 1015.9 hPa | 0 mm | - | 123 W/m² | - |
| 1787588739 | 16.67° C | 79% | 1016 hPa | 0 mm | - | 121 W/m² | - |
| 1787588440 | 16.67° C | 78% | 1016 hPa | 0 mm | - | 130 W/m² | - |
| 1787588140 | 16.67° C | 78% | 1016 hPa | 0 mm | - | 145 W/m² | - |
| 1787587840 | 17.22° C | 78% | 1016 hPa | 0 mm | - | 145 W/m² | - |
| 1787587765 | 17.22° C | 78% | 1015.7 hPa | 0 mm | - | 145 W/m² | - |
| 1787587464 | 17.22° C | 78% | 1015.7 hPa | 0 mm | - | 147 W/m² | - |
| 1787587164 | 17.22° C | 78% | 1015.6 hPa | 0 mm | - | 150 W/m² | - |
| 1787586863 | 17.22° C | 78% | 1015.6 hPa | 0 mm | - | 196 W/m² | - |
| 1787586639 | 16.67° C | 78% | 1016 hPa | 0 mm | - | 193 W/m² | - |
| 1787586564 | 16.67° C | 78% | 1015.5 hPa | 0 mm | - | 193 W/m² | - |
| 1787586264 | 16.67° C | 78% | 1015.4 hPa | 0 mm | - | 172 W/m² | - |
| 1787585964 | 16.67° C | 78% | 1015.3 hPa | 0 mm | - | 195 W/m² | - |
| 1787585667 | 16.67° C | 79% | 1015.2 hPa | 0 mm | - | 183 W/m² | - |
| 1787585441 | 16.67° C | 79% | 1015 hPa | 0 mm | - | 167 W/m² | - |
| 1787585364 | 16.67° C | 79% | 1015.2 hPa | 0 mm | - | 167 W/m² | - |
| 1787585139 | 16.11° C | 80% | 1015 hPa | 0 mm | - | 144 W/m² | - |
| 1787585063 | 16.11° C | 80% | 1015.1 hPa | 0 mm | - | 144 W/m² | - |
| 1787584764 | 16.11° C | 80% | 1015.2 hPa | 0 mm | - | 121 W/m² | - |
| 1787584541 | 16.11° C | 80% | 1015 hPa | 0 mm | - | 130 W/m² | - |
| 1787584465 | 16.11° C | 80% | 1015 hPa | 0 mm | - | 128 W/m² | - |
| 1787584164 | 16.11° C | 80% | 1015 hPa | 0 mm | - | 114 W/m² | - |
| 1787583940 | 16.11° C | 80% | 1015 hPa | 0 mm | - | 94 W/m² | - |
| 1787583863 | 16.11° C | 80% | 1014.9 hPa | 0 mm | - | 94 W/m² | - |
| 1787583565 | 16.11° C | 80% | 1014.8 hPa | 0 mm | - | 92 W/m² | - |
* Rain latest hour (hover to see other rain measurements)
** Current wind speed in m/s (hover to see current wind gust speed)